map of FLN home
Great Circle Mapper logo
FLN - Airport
Location
City:  Florianópolis, Santa Catarina, Brazil
Name:Hercílio Luz International Airport
ICAO / IATA:SBFL / FLN

Details
Type:Airport (Aerodrome, Airfield)
Use:Public/Civil, Military, International (customs port of entry)
Latitude:27°40'14"S (-27.670488)
Longitude:48°32'50"W (-48.547180)
Datum:WGS 1984
Elevation:20 ft (6 m)
Runways:2
Longest:7546 × 148 ft (2300 × 45 m), paved

Time
Time Zone:UTC-3 (DST-2)
Local Time:

Weather
METAR:SBFL 301500Z 12011KT CAVOK 27/21 Q1007
TAF:SBFL 301430Z 3018/3118 01010KT 9999 FEW040 TX30/3018Z TN20/3108Z
TEMPO 3021/3106 20012KT 4000 TSRA SCT005 FEW040CB
BECMG 3106/3108 20006KT FEW015
BECMG 3111/3113 16012KT FEW020
RMK PDW

Related Locations
Nearby:
Farthest:KKX: 12339 mi / 19857 km
Kikaiga Shima, Kikai-Shima Island, JP

Find:

   beyond  
but within

Other Information
Maps:
NOTAMs:
Links:
Sources:

  
flag of Brazil
flag of Santa Catarina
  

Sectional Chart

Flight Planning
at skyvector.com

Satellite Image

Google Maps Satellite View

 

Copyright © 2004-2014 Karl L. Swartz. All rights reserved.
The Great Circle Mapper name and logo are trademarks of the Great Circle Mapper.
All other trademarks mentioned herein belong to their respective owners.
Please see credits for attibutions and further copyright information.

  Follow gcmap on Facebook Follow gcmap on Twitter

hCard Microformat

Geo Microformat